TimeEDT,TemperatureF,Dew PointF,Humidity,Sea Level PressureIn,VisibilityMPH,Wind Direction,Wind SpeedMPH,Gust SpeedMPH,PrecipitationIn,Events,Conditions,WindDirDegrees,DateUTC
12:53 AM,71.1,59.0,66,29.95,10.0,Calm,Calm,-,N/A,,Overcast,0,2013-03-22 04:53:00
1:05 AM,71.6,59.0,64,29.95,10.0,Calm,Calm,-,N/A,,Overcast,0,2013-03-22 05:05:00
1:29 AM,71.6,59.0,64,29.93,10.0,Calm,Calm,-,N/A,,Mostly Cloudy,0,2013-03-22 05:29:00
1:53 AM,71.1,59.0,66,29.93,10.0,Calm,Calm,-,N/A,,Mostly Cloudy,0,2013-03-22 05:53:00
2:53 AM,70.0,60.1,71,29.91,10.0,Calm,Calm,-,N/A,,Overcast,0,2013-03-22 06:53:00
3:53 AM,70.0,60.1,71,29.89,10.0,Calm,Calm,-,N/A,,Overcast,0,2013-03-22 07:53:00
4:53 AM,71.1,61.0,70,29.90,10.0,Calm,Calm,-,N/A,,Overcast,0,2013-03-22 08:53:00
5:53 AM,71.1,62.1,73,29.90,10.0,Calm,Calm,-,N/A,,Mostly Cloudy,0,2013-03-22 09:53:00
6:53 AM,75.0,64.0,69,29.91,10.0,SSE,8.1,-,N/A,,Mostly Cloudy,160,2013-03-22 10:53:00
7:53 AM,75.0,66.0,73,29.93,10.0,SSE,6.9,-,N/A,,Partly Cloudy,150,2013-03-22 11:53:00
8:53 AM,77.0,64.9,66,29.95,10.0,SSE,5.8,-,N/A,,Partly Cloudy,160,2013-03-22 12:53:00
9:53 AM,78.1,66.0,66,29.98,10.0,SSE,8.1,-,N/A,,Overcast,160,2013-03-22 13:53:00
10:53 AM,82.0,68.0,62,29.98,10.0,SSE,6.9,-,N/A,,Scattered Clouds,150,2013-03-22 14:53:00
11:53 AM,81.0,68.0,65,29.99,10.0,SE,6.9,-,N/A,,Mostly Cloudy,140,2013-03-22 15:53:00
12:53 PM,81.0,69.1,67,29.99,10.0,SE,5.8,-,N/A,,Mostly Cloudy,140,2013-03-22 16:53:00
1:53 PM,82.9,69.1,63,29.96,10.0,SE,6.9,-,N/A,,Partly Cloudy,140,2013-03-22 17:53:00
2:53 PM,82.9,69.1,63,29.94,10.0,SSE,6.9,-,N/A,,Clear,150,2013-03-22 18:53:00
3:53 PM,82.0,70.0,67,29.93,10.0,SE,5.8,-,N/A,,Partly Cloudy,140,2013-03-22 19:53:00
4:53 PM,82.0,70.0,67,29.92,10.0,SE,5.8,-,N/A,,Clear,140,2013-03-22 20:53:00
5:53 PM,80.1,70.0,71,29.92,10.0,SE,5.8,-,N/A,,Clear,130,2013-03-22 21:53:00
6:53 PM,78.1,69.1,74,29.93,10.0,ESE,6.9,-,N/A,,Clear,120,2013-03-22 22:53:00
7:53 PM,77.0,70.0,79,29.94,10.0,SE,4.6,-,N/A,,Clear,140,2013-03-22 23:53:00
8:53 PM,77.0,71.1,82,29.96,10.0,SE,4.6,-,N/A,,Clear,140,2013-03-23 00:53:00
9:53 PM,77.0,71.1,82,29.97,10.0,SSE,5.8,-,N/A,,Clear,150,2013-03-23 01:53:00
10:53 PM,77.0,71.1,82,29.99,10.0,SSE,4.6,-,N/A,,Clear,150,2013-03-23 02:53:00
11:53 PM,77.0,71.1,82,29.99,10.0,Calm,Calm,-,N/A,,Partly Cloudy,0,2013-03-23 03:53:00